| time (UTC) | temp C | wind direction | speed KPH | gust KPH | rain 1hr cm | rain 24hr cm | rain mn cm | humidity % | barometer mb |
| 20260506160414 | 12 | 48 | 6.4 | 9.7 | 0.18 | 0.05 | 0.05 | 91 | 1014.4 |
| 20260506155409 | 12 | 43 | 8.0 | 11.3 | 0.30 | 0.05 | 0.05 | 89 | 1013.6 |
| 20260506153531 | 12 | 263 | 6.4 | 8.0 | 0.00 | 0.00 | 0.00 | 83 | 1017.2 |
| 20260506152530 | 12 | 48 | 3.2 | 8.0 | 0.00 | 0.00 | 0.00 | 83 | 1016.2 |
| 20260506151526 | 12 | 65 | 1.6 | 3.2 | 0.00 | 0.00 | 0.00 | 83 | 1015.9 |
| 20260506150525 | 12 | 15 | 6.4 | 11.3 | 0.00 | 0.00 | 0.00 | 83 | 1014.9 |
| 20260506145525 | 12 | 36 | 4.8 | 4.8 | 0.00 | 0.00 | 0.00 | 83 | 1015.6 |
| 20260506144525 | 12 | 184 | 0.0 | 1.6 | 0.00 | 0.00 | 0.00 | 84 | 1015.8 |
| 20260506143520 | 12 | 174 | 0.0 | 1.6 | 0.00 | 0.00 | 0.00 | 84 | 1015.6 |
| 20260506142515 | 12 | 31 | 4.8 | 8.0 | 0.00 | 0.00 | 0.00 | 85 | 1015.0 |
| 20260506141511 | 12 | 48 | 4.8 | 8.0 | 0.00 | 0.00 | 0.00 | 84 | 1015.3 |
| 20260506140506 | 12 | 27 | 9.7 | 12.9 | 0.00 | 0.00 | 0.00 | 84 | 1014.7 |
| 20260506135506 | 11 | 138 | 3.2 | 4.8 | 0.00 | 0.00 | 0.00 | 84 | 1014.6 |
| 20260506134503 | 11 | 244 | 3.2 | 4.8 | 0.00 | 0.00 | 0.00 | 84 | 1014.4 |
| 20260506133503 | 11 | 41 | 3.2 | 9.7 | 0.00 | 0.00 | 0.00 | 84 | 1014.6 |
| 20260506132503 | 11 | 321 | 9.7 | 11.3 | 0.00 | 0.00 | 0.00 | 84 | 1014.0 |
| 20260506131457 | 11 | 6 | 4.8 | 8.0 | 0.00 | 0.00 | 0.00 | 84 | 1014.4 |
| 20260506130456 | 12 | 80 | 3.2 | 3.2 | 0.00 | 0.00 | 0.00 | 84 | 1014.1 |
| 20260506125452 | 12 | 11 | 6.4 | 8.0 | 0.00 | 0.00 | 0.00 | 84 | 1014.1 |
| 20260506124447 | 12 | 114 | 4.8 | 8.0 | 0.00 | 0.00 | 0.00 | 84 | 1013.9 |
| 20260506123443 | 12 | 27 | 11.3 | 16.1 | 0.00 | 0.00 | 0.00 | 84 | 1014.1 |
| 20260506122442 | 12 | 108 | 3.2 | 3.2 | 0.00 | 0.00 | 0.00 | 84 | 1013.8 |
| 20260506121437 | 12 | 51 | 4.8 | 8.0 | 0.00 | 0.00 | 0.00 | 83 | 1013.8 |
| 20260506120432 | 12 | 4 | 8.0 | 9.7 | 0.00 | 0.00 | 0.00 | 83 | 1013.8 |
| 20260506115427 | 12 | 57 | 4.8 | 4.8 | 0.00 | 0.00 | 0.00 | 83 | 1013.6 |
| 20260506114422 | 12 | 63 | 4.8 | 8.0 | 0.00 | 0.00 | 0.00 | 83 | 1013.2 |
| 20260506113418 | 12 | 284 | 6.4 | 12.9 | 0.00 | 0.00 | 0.00 | 82 | 1012.9 |
| 20260506112418 | 12 | 324 | 4.8 | 8.0 | 0.00 | 0.00 | 0.00 | 80 | 1013.0 |
| 20260506111413 | 12 | 21 | 3.2 | 3.2 | 0.00 | 0.00 | 0.00 | 80 | 1012.8 |
| 20260506110414 | 12 | 127 | 1.6 | 1.6 | 0.00 | 0.00 | 0.00 | 79 | 1012.6 |
| 20260506105412 | 12 | 304 | 1.6 | 3.2 | 0.00 | 0.00 | 0.00 | 78 | 1012.4 |
| 20260506104408 | 12 | 88 | 3.2 | 4.8 | 0.00 | 0.00 | 0.00 | 78 | 1012.2 |
| 20260506103402 | 13 | 146 | 1.6 | 1.6 | 0.00 | 0.00 | 0.00 | 78 | 1012.2 |
| 20260506102357 | 13 | 67 | 6.4 | 8.0 | 0.00 | 0.00 | 0.00 | 77 | 1012.0 |
| 20260506101356 | 13 | 93 | 1.6 | 3.2 | 0.00 | 0.00 | 0.00 | 77 | 1011.6 |
| 20260506100352 | 13 | 78 | 3.2 | 3.2 | 0.00 | 0.00 | 0.00 | 77 | 1011.4 |
| 20260506095347 | 13 | 0 | 1.6 | 3.2 | 0.00 | 0.00 | 0.00 | 77 | 1011.4 |
| 20260506094343 | 13 | 86 | 3.2 | 4.8 | 0.00 | 0.00 | 0.00 | 77 | 1011.5 |
| 20260506093343 | 13 | 17 | 4.8 | 4.8 | 0.00 | 0.00 | 0.00 | 76 | 1011.3 |
| 20260506092339 | 13 | 47 | 3.2 | 4.8 | 0.00 | 0.00 | 0.00 | 76 | 1011.4 |
| 20260506091339 | 13 | 22 | 3.2 | 4.8 | 0.00 | 0.00 | 0.00 | 76 | 1010.9 |
| 20260506090340 | 13 | 86 | 3.2 | 4.8 | 0.00 | 0.00 | 0.00 | 76 | 1011.0 |
| 20260506085338 | 13 | 287 | 1.6 | 3.2 | 0.00 | 0.00 | 0.00 | 77 | 1010.7 |
| 20260506084338 | 13 | 158 | 0.0 | 1.6 | 0.00 | 0.00 | 0.00 | 77 | 1010.8 |
| 20260506083337 | 13 | 173 | 1.6 | 1.6 | 0.00 | 0.00 | 0.00 | 77 | 1010.9 |
| 20260506082337 | 13 | 36 | 4.8 | 8.0 | 0.00 | 0.00 | 0.00 | 76 | 1010.5 |
| 20260506081337 | 13 | 122 | 3.2 | 3.2 | 0.00 | 0.00 | 0.00 | 76 | 1010.6 |
| 20260506080337 | 13 | 149 | 1.6 | 3.2 | 0.00 | 0.00 | 0.00 | 77 | 1010.5 |
| 20260506073327 | 14 | 63 | 6.4 | 8.0 | 0.00 | 0.00 | 0.00 | 77 | 1010.5 |
| 20260506072327 | 14 | 118 | 1.6 | 1.6 | 0.00 | 0.00 | 0.00 | 77 | 1010.6 |
| 20260506071323 | 14 | 20 | 11.3 | 12.9 | 0.00 | 0.00 | 0.00 | 77 | 1010.8 |
| 20260506070322 | 14 | 74 | 4.8 | 4.8 | 0.00 | 0.00 | 0.00 | 77 | 1010.7 |
| 20260506062306 | 15 | 48 | 6.4 | 9.7 | 0.00 | 0.00 | 0.00 | 78 | 1010.6 |
| 20260506061304 | 15 | 147 | 1.6 | 3.2 | 0.00 | 0.00 | 0.00 | 79 | 1010.4 |
| 20260506060300 | 15 | 124 | 1.6 | 3.2 | 0.00 | 0.00 | 0.00 | 79 | 1010.7 |
| 20260506051249 | 16 | 351 | 4.8 | 8.0 | 0.00 | 0.00 | 0.00 | 80 | 1010.4 |
| 20260506050244 | 17 | 90 | 3.2 | 4.8 | 0.00 | 0.00 | 0.00 | 80 | 1009.9 |
| 20260506044243 | 17 | 16 | 8.0 | 17.7 | 0.00 | 0.00 | 0.00 | 80 | 1010.3 |
| 20260506043238 | 17 | 20 | 6.4 | 12.9 | 0.00 | 0.00 | 0.00 | 80 | 1010.0 |
| 20260506042235 | 17 | 203 | 3.2 | 4.8 | 0.00 | 0.00 | 0.00 | 80 | 1009.8 |
| 20260506041230 | 18 | 89 | 3.2 | 4.8 | 0.00 | 0.00 | 0.00 | 79 | 1009.5 |
| 20260506040230 | 18 | 103 | 1.6 | 3.2 | 0.00 | 0.00 | 0.00 | 79 | 1009.8 |
| 20260506035230 | 18 | 113 | 0.0 | 0.0 | 0.00 | 0.00 | 0.00 | 79 | 1009.7 |
| 20260506034229 | 19 | 183 | 3.2 | 4.8 | 0.00 | 0.00 | 0.00 | 79 | 1009.4 |
| 20260506033230 | 20 | 166 | 1.6 | 3.2 | 0.00 | 0.00 | 0.00 | 78 | 1009.3 |
| 20260506032229 | 20 | 154 | 6.4 | 9.7 | 0.00 | 0.00 | 0.00 | 78 | 1009.2 |
| 20260506031229 | 20 | 119 | 4.8 | 8.0 | 0.00 | 0.00 | 0.00 | 77 | 1008.9 |
| 20260506030224 | 20 | 210 | 4.8 | 8.0 | 0.00 | 0.00 | 0.00 | 77 | 1008.9 |
| 20260506025223 | 21 | 50 | 3.2 | 4.8 | 0.00 | 0.00 | 0.00 | 76 | 1008.7 |
| 20260506024223 | 21 | 129 | 1.6 | 1.6 | 0.00 | 0.00 | 0.00 | 76 | 1008.2 |
| 20260506023222 | 21 | 334 | 4.8 | 8.0 | 0.00 | 0.00 | 0.00 | 76 | 1007.8 |
| 20260506022217 | 22 | 38 | 3.2 | 4.8 | 0.00 | 0.00 | 0.00 | 76 | 1007.7 |
| 20260506021217 | 22 | 26 | 3.2 | 4.8 | 0.00 | 0.00 | 0.00 | 75 | 1007.0 |
| 20260506020212 | 22 | 158 | 0.0 | 1.6 | 0.00 | 0.00 | 0.00 | 74 | 1007.3 |
| 20260506015213 | 23 | 236 | 1.6 | 3.2 | 0.00 | 0.00 | 0.00 | 74 | 1007.1 |
| 20260506014211 | 23 | 323 | 8.0 | 9.7 | 0.00 | 0.00 | 0.00 | 74 | 1007.0 |
| 20260506013206 | 23 | 190 | 4.8 | 4.8 | 0.00 | 0.00 | 0.00 | 72 | 1006.9 |
| 20260506012205 | 23 | 97 | 3.2 | 4.8 | 0.00 | 0.00 | 0.00 | 72 | 1006.9 |
| 20260506011204 | 23 | 306 | 6.4 | 8.0 | 0.00 | 0.00 | 0.00 | 72 | 1006.5 |
| 20260506010159 | 23 | 136 | 3.2 | 4.8 | 0.00 | 0.00 | 0.00 | 72 | 1006.1 |
| 20260506005159 | 24 | 24 | 4.8 | 8.0 | 0.00 | 0.00 | 0.00 | 71 | 1006.4 |
| 20260506004159 | 25 | 200 | 3.2 | 4.8 | 0.00 | 0.00 | 0.00 | 71 | 1006.1 |
| 20260506003157 | 25 | 119 | 1.6 | 3.2 | 0.00 | 0.00 | 0.00 | 69 | 1006.1 |
| 20260506002154 | 26 | 322 | 9.7 | 11.3 | 0.00 | 0.00 | 0.00 | 68 | 1006.3 |
| 20260506001154 | 26 | 38 | 6.4 | 11.3 | 0.00 | 0.00 | 0.00 | 67 | 1005.8 |
| 20260506000148 | 26 | 336 | 8.0 | 11.3 | 0.00 | 0.00 | 0.00 | 65 | 1005.3 |
| 20260505235149 | 27 | 61 | 4.8 | 4.8 | 0.00 | 0.00 | 0.00 | 62 | 1005.0 |
| 20260505234148 | 27 | 249 | 6.4 | 8.0 | 0.00 | 0.00 | 0.00 | 65 | 1005.3 |
| 20260505233148 | 28 | 212 | 4.8 | 8.0 | 0.00 | 0.00 | 0.00 | 73 | 1004.8 |
| 20260505232143 | 28 | 183 | 8.0 | 11.3 | 0.00 | 0.00 | 0.00 | 72 | 1004.8 |
| 20260505231139 | 28 | 146 | 6.4 | 9.7 | 0.00 | 0.00 | 0.00 | 72 | 1004.6 |
| 20260505230138 | 28 | 138 | 3.2 | 4.8 | 0.00 | 0.00 | 0.00 | 71 | 1004.4 |
| 20260505225137 | 29 | 155 | 8.0 | 11.3 | 0.00 | 0.00 | 0.00 | 71 | 1004.6 |
| 20260505224137 | 29 | 191 | 8.0 | 11.3 | 0.00 | 0.00 | 0.00 | 69 | 1004.6 |
| 20260505223136 | 30 | 175 | 8.0 | 14.5 | 0.00 | 0.00 | 0.00 | 68 | 1004.2 |
| 20260505222135 | 30 | 164 | 8.0 | 9.7 | 0.00 | 0.00 | 0.00 | 68 | 1004.4 |
| 20260505221134 | 31 | 154 | 3.2 | 4.8 | 0.00 | 0.00 | 0.00 | 65 | 1004.3 |
| 20260505220129 | 30 | 162 | 8.0 | 9.7 | 0.00 | 0.00 | 0.00 | 65 | 1004.4 |
| 20260505215125 | 30 | 171 | 3.2 | 3.2 | 0.00 | 0.00 | 0.00 | 67 | 1004.5 |
| 20260505214125 | 31 | 167 | 6.4 | 8.0 | 0.00 | 0.00 | 0.00 | 62 | 1004.6 |
| 20260505213124 | 30 | 219 | 9.7 | 11.3 | 0.00 | 0.00 | 0.00 | 58 | 1004.6 |
| 20260505212124 | 31 | 168 | 4.8 | 4.8 | 0.00 | 0.00 | 0.00 | 64 | 1004.8 |
| 20260505211124 | 31 | 209 | 4.8 | 8.0 | 0.00 | 0.00 | 0.00 | 62 | 1004.6 |
| 20260505210123 | 31 | 199 | 9.7 | 11.3 | 0.00 | 0.00 | 0.00 | 61 | 1004.9 |
| 20260505205119 | 30 | 220 | 11.3 | 12.9 | 0.00 | 0.00 | 0.00 | 63 | 1004.8 |
| 20260505204113 | 30 | 165 | 3.2 | 3.2 | 0.00 | 0.00 | 0.00 | 65 | 1005.4 |
| 20260505203113 | 30 | 217 | 11.3 | 12.9 | 0.00 | 0.00 | 0.00 | 66 | 1005.3 |
| 20260505202110 | 30 | 229 | 12.9 | 16.1 | 0.00 | 0.00 | 0.00 | 64 | 1005.3 |
| 20260505201105 | 30 | 205 | 9.7 | 11.3 | 0.00 | 0.00 | 0.00 | 68 | 1005.4 |
| 20260505200105 | 30 | 214 | 8.0 | 16.1 | 0.00 | 0.00 | 0.00 | 67 | 1005.4 |
| 20260505195105 | 29 | 171 | 6.4 | 9.7 | 0.00 | 0.00 | 0.00 | 69 | 1005.4 |
| 20260505194103 | 28 | 206 | 11.3 | 12.9 | 0.00 | 0.00 | 0.00 | 68 | 1005.6 |
| 20260505193104 | 29 | 231 | 4.8 | 8.0 | 0.00 | 0.00 | 0.00 | 68 | 1005.6 |
| 20260505192059 | 28 | 226 | 6.4 | 8.0 | 0.00 | 0.00 | 0.00 | 70 | 1005.4 |
| 20260505191055 | 28 | 211 | 11.3 | 14.5 | 0.00 | 0.00 | 0.00 | 69 | 1005.5 |
| 20260505190052 | 28 | 211 | 9.7 | 16.1 | 0.00 | 0.00 | 0.00 | 69 | 1005.6 |
| 20260505185051 | 28 | 204 | 8.0 | 14.5 | 0.00 | 0.00 | 0.00 | 70 | 1005.6 |
| 20260505184050 | 27 | 165 | 8.0 | 14.5 | 0.00 | 0.00 | 0.00 | 71 | 1005.7 |
| 20260505183045 | 27 | 187 | 8.0 | 12.9 | 0.00 | 0.00 | 0.00 | 72 | 1005.6 |
| 20260505182043 | 27 | 211 | 12.9 | 16.1 | 0.00 | 0.00 | 0.00 | 70 | 1006.0 |
| 20260505181044 | 27 | 186 | 12.9 | 14.5 | 0.00 | 0.00 | 0.00 | 70 | 1005.8 |
| 20260505180043 | 28 | 157 | 6.4 | 9.7 | 0.00 | 0.00 | 0.00 | 70 | 1005.8 |
| 20260505175040 | 27 | 191 | 4.8 | 8.0 | 0.00 | 0.00 | 0.00 | 73 | 1005.8 |
| 20260505174039 | 27 | 184 | 8.0 | 11.3 | 0.00 | 0.00 | 0.00 | 72 | 1005.9 |
| 20260505173039 | 27 | 196 | 9.7 | 12.9 | 0.00 | 0.00 | 0.00 | 72 | 1006.0 |
| 20260505172038 | 27 | 170 | 9.7 | 12.9 | 0.00 | 0.00 | 0.00 | 73 | 1006.0 |
| 20260505171036 | 27 | 215 | 4.8 | 4.8 | 0.00 | 0.00 | 0.00 | 73 | 1006.2 |
| 20260505170035 | 27 | 200 | 14.5 | 17.7 | 0.00 | 0.00 | 0.00 | 71 | 1006.1 |
| 20260505165032 | 26 | 232 | 16.1 | 17.7 | 0.00 | 0.00 | 0.00 | 73 | 1006.1 |
| 20260505164032 | 26 | 174 | 11.3 | 16.1 | 0.00 | 0.00 | 0.00 | 74 | 1006.1 |
| 20260505163027 | 26 | 222 | 9.7 | 14.5 | 0.00 | 0.00 | 0.00 | 76 | 1005.9 |
| 20260505162023 | 26 | 164 | 12.9 | 20.9 | 0.00 | 0.00 | 0.00 | 76 | 1006.0 |